Location: Unspecified
(0.0000°N, 0.0000°E)
Time: 07:00:09
(UTC+00:00)

deb Explorer IX - Pass Details

Date: 23 November 2019
Orbit: 546 x 1104 km, 38.8° (Epoch: 11 December)

Event Time Altitude Azimuth Distance (km) Brightness Sun altitude
Rises 20:36:58 0° 251° (WSW) 3,792 ? -39.4°
Reaches altitude 10° 20:39:58 10° 262° (W) 2,890 ? -40.1°
Enters shadow 20:44:02 26° 292° (WNW) 1,983 ? -41.0°
